Location: *
(48.8667°N, 2.3331°E)
Time: 08:50:02
(UTC+00:00)

Cosmos 2061 Rocket - Pass Details

Date: 16 August 2020
Orbit: 966 x 1012 km, 82.9° (Epoch: 23 September)

Event Time Altitude Azimuth Distance (km) Brightness Sun altitude
Exits shadow 21:19:49 31° 152° (SSE) 1,620 4.6 -19.0°
Maximum altitude 21:22:34 54° 92° (E) 1,166 4.1 -19.3°
Drops below altitude 10° 21:28:35 10° 17° (NNE) 2,720 6.8 -19.9°
Sets 21:31:08 0° 13° (NNE) 3,674 7.6 -20.1°
